Theta_e
337 341 341 339 344 344 337 337 338 338 338 337 336 339 339 340 342 340 331 331 339 332 322 325 328 329 329 329 327 327 327 325 324 320 319 319 320 322 321 319 320 321 321 322 322 322 323 324 325
329 343 341 337 346 344 338 337 337 340 337 334 338 337 337 335 338 332 331 332 337 332 322 327 330 330 329 329 328 327 326 326 325 322 319 318 320 322 323 321 321 321 321 322 323 324 324 325 326
336 340 341 344 346 340 338 338 337 335 335 332 338 340 337 336 334 332 330 333 336 338 326 325 328 330 330 330 330 329 328 327 326 326 323 320 319 320 323 323 323 323 323 323 324 325 325 326 326
339 339 339 342 343 340 338 336 337 334 333 335 337 339 337 336 335 331 331 333 334 337 338 324 325 328 329 330 330 330 330 328 328 327 326 325 322 320 321 325 325 325 325 325 326 326 326 327 327
336 335 339 338 340 341 339 336 337 335 335 335 337 338 336 335 335 333 331 332 334 337 339 325 323 324 327 329 330 331 330 330 329 329 328 327 325 323 321 322 326 327 327 327 328 328 327 327 328
332 334 339 340 338 340 338 335 335 336 335 335 336 339 338 336 336 334 332 331 332 336 341 334 322 322 323 324 326 328 329 330 331 330 329 329 331 329 325 322 322 326 328 328 329 329 329 328 329
331 333 337 338 338 341 338 336 336 335 336 336 338 341 340 338 337 334 332 331 332 335 339 339 340 340 341 334 324 326 326 326 329 331 331 330 331 332 330 328 326 323 323 325 328 329 330 330 331
332 335 336 337 337 337 338 338 341 336 335 337 339 341 340 337 337 335 334 333 336 338 339 341 342 341 342 343 342 339 339 339 328 330 332 332 332 335 331 328 326 324 322 325 328 329 329 330 331
331 335 335 336 337 338 336 338 336 335 334 336 337 339 338 338 339 337 340 340 339 338 341 342 346 347 346 344 344 343 342 339 334 331 332 330 333 333 335 332 330 327 334 334 332 329 328 329 330
332 333 332 334 337 337 336 337 336 334 334 332 336 339 340 340 343 342 341 334 332 339 345 345 345 346 345 345 344 343 341 340 338 334 329 329 330 331 330 332 336 337 338 333 333 331 328 328 329
331 331 333 332 335 336 335 335 336 337 337 333 335 339 340 343 344 337 334 334 344 343 343 343 344 341 338 335 341 341 339 339 333 331 332 331 333 332 329 331 341 339 338 336 333 328 326 331 330
330 331 331 332 337 337 337 336 336 337 339 338 337 340 344 341 338 336 341 344 344 343 342 344 346 339 337 343 342 340 340 339 335 335 338 333 334 335 336 338 337 338 338 335 333 327 326 330 329
332 335 333 335 335 332 332 335 338 338 339 339 340 343 343 344 340 341 345 346 345 343 345 343 345 342 341 343 342 338 340 339 340 339 336 340 336 333 336 335 336 339 337 335 331 331 330 331 330
334 334 334 336 336 336 337 340 339 339 340 343 344 346 347 344 343 346 347 345 343 343 345 345 343 343 341 342 336 340 340 339 338 339 339 332 336 334 336 335 334 334 337 335 331 330 333 332 332
333 334 334 335 337 335 334 339 341 341 341 344 343 343 344 345 345 346 347 344 343 342 341 342 342 343 339 340 338 338 337 338 331 337 333 333 334 335 334 334 335 332 332 333 329 327 326 328 330
334 334 336 336 336 334 335 342 340 340 341 340 341 344 345 346 346 346 344 342 343 341 341 341 341 338 337 339 335 336 336 337 334 336 335 333 332 332 332 331 331 331 330 330 330 328 325 330 328
334 337 337 336 338 337 339 342 337 340 341 342 344 345 347 347 345 343 341 341 341 341 339 338 333 324 336 335 335 335 334 333 332 331 331 328 328 328 328 328 327 326 325 324 323 324 324 325 324
335 335 336 333 338 338 339 339 338 339 340 342 344 343 344 344 342 341 340 340 339 336 333 332 329 320 324 327 327 326 327 330 326 327 324 323 323 321 321 323 324 323 323 323 322 322 321 322 322
333 335 335 334 332 337 338 338 338 337 340 342 340 341 341 341 341 339 339 338 335 334 332 329 327 323 319 325 323 322 323 323 323 323 322 321 320 317 318 318 316 318 318 319 319 321 321 320 320
333 334 334 333 333 337 338 338 335 333 334 339 341 342 342 341 339 338 336 334 333 330 327 327 324 324 321 323 322 321 321 321 322 321 319 317 317 316 316 315 315 314 315 317 317 315 314 315 317
332 334 333 332 337 337 337 339 337 336 338 335 339 339 338 337 336 335 333 329 326 326 326 326 325 322 322 320 320 319 318 319 318 317 317 317 317 317 315 314 314 313 314 314 313 313 314 314 313
332 332 332 338 337 342 336 343 335 335 331 331 338 335 334 334 333 331 329 327 325 325 325 325 325 323 322 320 318 317 317 317 317 317 316 316 317 317 317 314 314 313 313 313 312 313 313 314 315
330 333 336 337 339 339 338 337 341 337 337 337 336 335 333 332 330 329 327 325 325 326 324 325 323 322 320 320 317 315 317 316 317 316 316 316 315 315 314 313 314 314 314 313 313 313 313 313 315
334 336 336 337 337 345 340 339 345 340 333 336 336 334 333 331 329 328 327 324 326 326 325 324 323 322 318 319 316 316 315 316 316 314 315 314 314 313 314 314 314 314 314 315 315 315 315 315 314
332 333 335 340 342 343 338 342 343 338 336 338 336 334 332 329 328 327 327 325 326 326 325 323 323 322 317 317 317 316 311 313 313 314 313 313 314 314 314 315 314 314 314 312 312 313 313 313 313
330 334 338 340 332 336 338 342 344 337 335 335 335 333 331 329 328 327 327 327 326 325 326 323 323 320 318 316 316 314 312 313 313 314 315 314 315 314 314 314 314 312 312 312 312 313 312 312 312
333 333 332 334 337 339 342 340 338 336 336 335 334 333 331 329 328 326 326 326 325 324 324 322 321 320 317 317 315 315 313 313 315 315 314 314 314 314 315 313 313 313 311 312 312 313 313 312 312
335 335 334 333 334 336 342 343 342 339 337 336 335 333 332 330 328 325 325 326 325 323 322 321 320 318 316 317 315 313 313 315 315 314 314 314 316 315 314 312 312 310 311 312 312 312 312 312 312
330 333 333 333 336 337 337 338 339 340 339 336 334 332 332 329 327 325 325 326 325 323 321 321 319 317 316 317 315 313 313 316 314 315 315 313 314 314 313 313 311 310 311 312 312 311 311 311 311
331 330 334 334 336 336 336 344 337 337 336 335 333 332 331 329 327 325 324 325 324 323 321 321 318 317 316 317 315 313 314 315 316 317 314 314 314 315 313 312 311 311 311 311 311 310 310 310 310
Wind_Speed
6 15 18 14 2 5 17 18 17 17 16 16 12 17 20 21 10 6 14 13 12 6 10 9 7 6 6 6 6 5 4 3 3 3 4 3 2 1 1 1 2 4 5 7 8 10 12 14 16
13 4 4 10 2 5 13 18 17 15 17 12 10 17 21 18 19 21 15 15 13 6 9 9 7 5 5 5 5 4 2 2 3 4 5 5 5 4 3 2 2 1 2 4 5 7 9 11 14
7 3 6 5 4 11 13 18 18 17 18 24 22 22 18 18 20 17 18 17 13 9 9 10 7 5 5 5 4 4 3 4 5 6 7 8 7 7 6 6 5 5 4 5 6 7 8 10 12
5 2 9 4 10 11 16 14 26 21 21 25 21 13 18 14 17 15 18 17 12 13 14 6 6 5 5 4 4 4 5 5 6 7 8 9 10 10 10 9 8 8 7 7 8 8 9 10 11
16 12 4 10 10 20 21 25 28 19 23 22 21 18 19 15 16 16 16 12 12 13 8 3 5 5 4 5 5 6 7 8 8 9 10 11 12 12 11 11 11 12 12 11 10 10 10 10 11
16 4 3 10 2 22 22 26 22 11 24 24 21 21 17 14 13 13 13 10 9 8 6 2 3 3 6 8 9 9 10 10 10 11 12 12 12 12 13 14 14 15 16 15 14 13 12 10 11
18 4 15 15 8 21 20 29 9 16 23 18 22 16 15 15 13 12 11 9 8 8 3 5 5 8 9 9 10 8 13 13 13 12 13 14 11 12 12 14 14 16 20 20 19 18 16 13 12
11 8 12 8 11 11 28 19 37 37 30 18 14 11 15 16 14 13 11 9 7 4 7 2 3 6 9 9 8 11 17 17 14 11 13 14 11 11 15 14 17 15 18 21 22 20 19 16 13
7 10 6 9 12 3 5 28 30 27 26 18 17 17 17 17 13 14 19 17 28 3 11 8 8 8 12 11 10 14 8 12 8 11 15 14 14 13 14 13 23 16 18 20 24 22 18 17 17
6 3 7 12 16 10 35 19 11 9 14 3 5 16 17 15 15 22 10 24 19 6 19 12 6 7 6 13 13 13 14 19 20 19 19 22 14 16 20 15 14 18 20 16 21 19 18 18 18
5 8 10 12 24 34 20 31 16 26 12 19 20 19 16 17 19 23 18 16 11 7 14 10 10 8 8 7 9 10 16 17 15 12 15 9 11 18 20 13 10 19 13 15 15 15 18 14 13
12 8 8 16 30 37 31 24 21 6 26 25 19 14 26 17 17 19 5 10 19 13 13 12 10 13 16 13 8 9 12 17 16 13 8 10 16 21 19 14 17 10 18 17 16 7 8 10 8
7 26 4 24 31 36 26 10 29 13 30 20 18 24 22 18 19 19 13 15 17 18 17 17 17 15 14 15 13 10 11 16 20 23 21 14 15 20 19 18 16 17 12 20 19 11 12 16 21
16 19 21 24 24 24 18 10 15 17 19 26 20 18 20 21 22 18 16 16 18 18 17 17 15 16 14 12 13 13 15 14 17 16 15 14 22 17 17 15 16 14 13 18 14 18 8 12 14
19 18 19 16 26 15 18 10 13 18 18 21 17 17 18 18 18 17 15 17 17 16 16 14 14 13 16 17 19 19 20 15 21 24 21 17 18 20 19 15 12 15 19 21 21 21 20 21 23
10 8 6 9 15 3 1 5 3 18 22 20 11 17 16 17 18 14 15 16 17 18 22 20 15 15 15 18 17 18 22 23 10 12 7 13 13 14 15 18 15 11 15 20 20 14 19 25 20
8 9 16 5 12 13 11 12 15 23 19 17 17 13 18 20 18 16 16 16 17 15 13 14 14 17 13 19 13 15 18 21 19 17 19 23 18 20 19 17 18 18 16 16 18 16 17 21 21
13 9 23 7 15 11 13 13 9 15 18 25 30 13 21 16 13 13 16 16 14 15 17 18 22 22 12 18 13 12 17 23 24 20 22 21 21 23 23 16 15 16 15 19 21 19 15 14 16
13 11 12 17 3 9 13 11 14 23 8 25 18 14 12 14 18 14 14 14 14 16 17 20 20 25 18 24 20 18 19 19 23 22 23 22 24 22 20 21 19 21 18 17 17 14 12 14 12
11 12 4 11 3 8 4 26 17 32 38 19 20 26 19 14 15 13 13 13 14 13 16 20 22 25 26 21 21 16 17 15 13 18 23 25 24 24 19 18 19 21 15 15 16 18 19 14 12
6 10 4 10 14 21 22 24 13 13 23 42 8 17 20 16 14 12 12 14 16 14 17 19 21 22 26 27 24 23 18 17 20 19 22 18 17 16 19 23 21 18 15 15 20 17 15 16 13
3 11 13 22 10 5 7 4 8 9 10 43 12 15 16 15 12 11 11 13 15 15 16 16 18 21 23 28 28 24 20 21 20 18 18 20 17 13 16 21 21 18 17 18 17 14 14 14 13
13 11 18 22 15 8 11 10 10 18 12 12 14 13 12 10 11 12 14 14 13 13 15 15 16 17 21 24 26 26 21 19 18 17 17 15 19 22 25 23 17 16 17 16 15 16 15 15 15
12 9 3 5 5 2 18 9 4 7 10 10 13 11 9 11 13 12 13 15 13 13 13 14 14 14 28 20 23 19 17 19 20 16 19 14 19 20 20 21 20 20 20 19 18 17 15 15 15
9 14 4 2 5 3 7 6 6 14 17 11 15 12 10 14 13 12 13 13 13 12 12 14 14 19 27 19 17 22 19 16 19 18 19 19 19 20 23 22 24 22 23 22 20 17 18 15 15
13 7 6 12 12 4 17 7 6 13 15 14 15 12 12 11 11 12 13 12 12 13 10 13 15 17 19 18 17 26 19 17 18 18 21 21 18 18 23 21 22 24 20 22 19 16 17 18 17
8 10 9 7 16 5 7 4 5 3 11 14 13 12 11 8 9 11 13 12 12 14 10 13 15 15 18 13 18 23 20 17 19 20 19 20 18 20 20 22 22 22 21 21 21 18 19 20 20
7 5 7 6 6 11 8 7 5 10 9 10 9 11 9 4 11 12 12 11 12 12 13 14 13 15 17 12 17 22 18 18 17 19 19 20 21 20 21 24 23 19 19 21 21 21 20 19 20
7 4 6 6 5 6 7 8 11 10 12 6 13 8 8 9 10 12 11 10 11 11 12 12 13 15 15 12 15 21 16 14 16 18 18 18 18 21 22 23 22 18 19 18 21 21 22 20 19
4 6 7 5 11 9 7 1 10 10 12 8 10 10 11 5 8 10 11 10 11 10 10 12 13 14 14 10 15 23 17 16 16 14 20 22 17 19 24 21 20 18 19 20 20 22 21 20 19
Wind_Direction
3 25 4 0 202 298 77 75 72 67 67 70 73 64 66 53 131 162 145 126 134 160 135 131 124 114 109 107 108 115 126 137 153 166 179 179 176 150 123 97 68 58 53 46 45 43 39 36 33
349 309 315 56 35 271 84 86 62 102 113 93 125 88 76 75 91 121 126 133 141 164 140 135 130 124 122 120 124 135 158 185 203 214 220 222 228 236 245 249 278 336 16 15 18 21 18 17 16
39 54 253 189 195 72 90 93 95 74 96 90 71 61 93 88 105 120 134 139 137 158 147 141 149 148 149 156 162 178 208 228 235 237 242 244 245 248 251 254 261 273 300 319 335 345 353 357 2
314 102 307 226 160 81 87 80 106 105 76 98 102 84 78 78 117 127 137 144 147 150 173 161 172 178 181 187 200 215 229 240 246 252 254 253 252 252 252 256 265 278 286 296 309 319 325 334 346
283 261 83 254 49 84 66 48 24 96 93 97 96 100 100 106 117 131 140 144 144 152 193 213 195 213 233 239 240 245 245 249 254 253 252 258 260 260 263 265 267 273 276 279 289 299 305 316 327
286 140 285 120 46 91 94 70 93 121 112 106 101 105 108 122 123 134 137 137 132 122 144 30 292 278 294 284 271 274 273 274 272 268 265 262 270 276 269 272 272 270 273 274 274 278 284 298 311
267 196 248 117 57 116 126 134 68 82 75 86 112 114 135 125 123 126 123 122 129 128 216 326 11 330 339 307 286 304 295 285 278 281 282 274 277 284 278 260 264 267 274 272 270 274 277 285 297
323 84 53 107 120 59 139 81 71 47 359 1 125 131 125 129 124 121 115 96 87 125 125 182 306 303 331 297 306 308 303 302 279 279 286 287 278 289 277 270 262 263 255 265 265 264 270 274 282
292 101 194 152 117 86 332 84 70 93 341 14 1 103 121 130 131 126 88 45 12 117 96 70 43 14 346 326 330 319 291 307 277 285 276 281 278 310 303 312 288 257 266 259 264 262 261 267 274
241 268 102 79 131 126 54 69 72 115 174 281 7 107 120 111 89 50 62 16 3 294 32 31 37 20 355 352 359 347 328 315 295 282 277 271 262 277 271 293 292 290 270 325 248 267 259 253 267
321 37 34 62 87 84 130 77 233 132 154 189 196 131 134 118 84 57 330 69 85 21 46 27 0 36 31 7 8 310 327 320 323 324 309 253 295 311 282 279 284 293 295 255 217 284 293 260 244
285 77 342 60 89 79 51 3 261 132 168 158 179 119 73 81 81 64 58 57 58 60 49 44 30 39 20 30 354 3 339 330 348 336 343 304 310 304 290 267 263 248 296 256 282 315 235 204 194
341 16 353 90 84 103 120 214 230 59 113 149 97 97 100 94 87 84 75 43 37 46 41 42 27 24 12 18 11 356 352 335 327 330 329 258 311 306 298 291 278 242 269 285 289 291 245 231 207
52 89 342 89 93 78 69 27 55 78 96 90 86 84 82 70 69 66 56 45 37 31 35 34 24 18 25 3 359 341 328 323 343 328 302 350 319 327 316 314 295 304 267 279 306 262 335 285 290
31 42 353 10 115 152 246 62 73 76 93 86 83 85 82 75 62 61 62 51 44 35 35 46 25 1 358 356 11 352 346 348 330 315 324 345 350 344 334 338 323 293 278 278 289 283 268 275 274
56 72 163 266 117 145 74 125 313 112 109 101 100 88 83 69 62 59 60 51 39 37 34 29 16 7 15 0 358 349 348 6 359 2 5 326 328 328 341 341 336 319 305 299 303 312 298 271 274
221 126 267 217 125 147 129 119 256 120 116 124 110 115 98 78 66 61 54 53 44 36 35 15 359 17 25 1 343 330 335 340 348 346 345 344 337 328 329 354 356 342 339 331 324 323 299 285 287
218 146 210 102 172 94 109 117 115 130 141 118 91 71 74 69 75 68 63 53 46 29 24 19 2 10 20 8 350 344 3 354 348 345 346 342 341 339 331 326 332 341 330 343 334 330 326 329 328
51 64 41 342 68 132 115 99 66 46 212 105 108 110 108 95 91 68 61 56 44 34 25 17 16 12 31 19 3 13 13 359 6 343 345 348 343 346 332 329 338 333 326 338 333 328 323 309 314
12 89 132 244 315 103 118 43 25 359 337 77 114 126 117 104 86 73 62 50 37 38 23 18 24 15 13 27 1 14 10 360 357 0 353 1 359 4 3 359 351 353 1 345 342 331 328 324 298
355 323 339 299 99 60 51 9 71 279 334 334 26 74 87 78 81 79 65 55 42 29 25 26 19 19 7 8 0 7 11 11 5 5 355 14 357 1 354 352 352 359 351 344 340 332 329 329 330
350 17 343 30 64 54 16 239 217 91 95 261 95 76 92 100 97 74 65 45 38 33 17 23 14 14 12 5 5 9 20 14 5 14 9 11 0 7 7 351 350 347 353 345 341 340 336 333 324
357 4 65 88 92 123 238 241 140 175 191 278 113 114 104 103 79 63 45 48 37 31 21 14 13 17 13 6 4 10 29 19 4 14 3 12 8 1 352 352 355 351 352 346 339 339 333 327 326
341 76 280 52 176 158 246 206 323 198 176 231 124 103 91 92 68 65 52 37 34 26 20 10 8 1 5 11 7 10 19 13 5 360 3 358 350 353 347 355 1 356 352 348 339 336 319 318 314
320 307 311 226 224 280 282 170 150 198 192 176 116 109 78 59 55 41 49 26 26 14 17 13 353 359 7 11 3 358 8 15 3 12 2 1 357 355 348 351 352 351 347 338 334 343 340 335 317
298 336 356 335 320 67 42 35 353 79 92 98 91 97 71 51 53 38 53 29 13 11 20 18 357 8 24 4 4 357 9 18 8 13 10 357 352 357 352 3 357 350 4 2 9 1 352 347 349
342 335 338 292 298 107 130 324 121 295 133 119 107 98 70 44 69 44 51 36 19 14 19 22 5 21 15 5 0 359 14 15 18 9 9 2 3 1 0 354 6 0 360 8 4 5 3 5 2
282 338 341 337 328 342 176 137 189 205 151 115 142 120 90 36 55 48 55 40 24 16 18 21 14 8 7 358 358 7 8 21 12 10 13 4 7 3 354 5 359 354 11 10 13 9 6 0 6
322 335 8 324 328 324 347 74 107 157 141 132 102 93 103 70 42 44 52 42 31 18 14 15 12 10 10 358 9 14 15 11 1 9 10 7 6 358 7 356 360 8 17 16 15 13 11 12 13
357 13 30 359 348 1 346 317 11 107 113 108 98 92 68 66 45 47 40 38 30 20 17 15 13 14 14 7 18 2 16 13 4 7 6 8 12 6 8 8 4 19 18 19 19 18 15 9 16